TimeEDT,TemperatureF,Dew PointF,Humidity,Sea Level PressureIn,VisibilityMPH,Wind Direction,Wind SpeedMPH,Gust SpeedMPH,PrecipitationIn,Events,Conditions,WindDirDegrees,DateUTC
12:51 AM,62.1,59.0,90,30.05,10.0,Calm,Calm,-,N/A,,Clear,0,2013-08-19 04:51:00
1:51 AM,60.1,55.9,86,30.03,10.0,Calm,Calm,-,N/A,,Clear,0,2013-08-19 05:51:00
2:51 AM,62.1,57.9,86,30.02,10.0,Variable,3.5,-,N/A,,Clear,0,2013-08-19 06:51:00
3:51 AM,59.0,55.9,90,30.01,10.0,WNW,3.5,-,N/A,,Clear,300,2013-08-19 07:51:00
4:51 AM,57.9,55.0,90,30.01,10.0,Calm,Calm,-,N/A,,Clear,0,2013-08-19 08:51:00
5:51 AM,57.9,55.0,90,30.01,10.0,Calm,Calm,-,N/A,,Clear,0,2013-08-19 09:51:00
6:51 AM,60.1,57.0,90,30.01,10.0,Calm,Calm,-,N/A,,Clear,0,2013-08-19 10:51:00
7:51 AM,64.9,57.9,78,30.01,10.0,Calm,Calm,-,N/A,,Clear,0,2013-08-19 11:51:00
8:51 AM,70.0,57.9,65,30.00,10.0,WNW,4.6,-,N/A,,Clear,300,2013-08-19 12:51:00
9:51 AM,75.0,61.0,62,29.99,10.0,Calm,Calm,-,N/A,,Clear,0,2013-08-19 13:51:00
10:51 AM,77.0,59.0,54,29.98,10.0,NW,8.1,-,N/A,,Clear,320,2013-08-19 14:51:00
11:51 AM,78.1,59.0,52,29.97,10.0,Variable,5.8,-,N/A,,Clear,0,2013-08-19 15:51:00
12:51 PM,78.1,59.0,52,29.96,10.0,Variable,4.6,-,N/A,,Clear,0,2013-08-19 16:51:00
1:51 PM,80.1,61.0,52,29.94,10.0,Variable,3.5,-,N/A,,Clear,0,2013-08-19 17:51:00
2:51 PM,81.0,59.0,47,29.93,10.0,Variable,5.8,-,N/A,,Clear,0,2013-08-19 18:51:00
3:51 PM,81.0,57.9,45,29.93,10.0,Variable,5.8,-,N/A,,Clear,0,2013-08-19 19:51:00
4:51 PM,82.0,59.0,45,29.92,10.0,Variable,4.6,-,N/A,,Clear,0,2013-08-19 20:51:00
5:51 PM,80.1,60.1,50,29.91,10.0,Calm,Calm,-,N/A,,Clear,0,2013-08-19 21:51:00
6:51 PM,77.0,63.0,62,29.94,10.0,Calm,Calm,-,N/A,,Clear,0,2013-08-19 22:51:00
7:51 PM,73.9,62.1,66,29.94,10.0,SW,3.5,-,N/A,,Clear,230,2013-08-19 23:51:00
8:51 PM,72.0,62.1,71,29.94,10.0,Calm,Calm,-,N/A,,Clear,0,2013-08-20 00:51:00
9:51 PM,71.1,60.1,68,29.95,10.0,Variable,3.5,-,N/A,,Clear,0,2013-08-20 01:51:00
10:51 PM,68.0,60.1,76,29.95,10.0,Calm,Calm,-,N/A,,Clear,0,2013-08-20 02:51:00
11:51 PM,66.0,60.1,81,29.95,10.0,Calm,Calm,-,N/A,,Clear,0,2013-08-20 03:51:00